Regional Weather Roundup
Issued by NWS Cleveland, OH

Home | Current Version | Previous Version | Graphics & Text | Print | Product List | Glossary On
Versions: 1 2 3 4 5 6 7 8 9 10 11 12 13 14 15 16 17 18 19 20 21 22 23 24 25 26 27 28 29 30 31 32 33 34 35 36 37 38 39 40 41 42 43 44 45 46 47 48 49 50
000
ASUS41 KCLE 071500
RWRCLE
OHIO REGIONAL WEATHER ROUNDUP
NATIONAL WEATHER SERVICE WILMINGTON, OH
1100 AM EDT TUE JUL 07 2015

NOTE: "FAIR" INDICATES FEW OR NO CLOUDS BELOW 12,000 FEET WITH NO
SIGNIFICANT WEATHER AND/OR OBSTRUCTIONS TO VISIBILITY.

OHZ001>008-015>018-024>027-034-035-043-044-071600-
   NORTHWEST OHIO

CITY           SKY/WX    TMP DP  RH WIND       PRES   REMARKS
DEFIANCE       LGT RAIN  72  69  90 SW7       29.89F FOG
FINDLAY        CLOUDY    82  72  71 SW16G23   29.90F
TOLEDO EXPRESS CLOUDY    78  72  81 SW12G18   29.87S
TOLEDO EXEC    CLOUDY    80  71  74 SW12G22   29.88F
LIMA           CLOUDY    79  71  76 SW16G23   29.92F
$$

OHZ009>014-019>023-028>033-038-089-071600-
   NORTHEAST OHIO

CITY           SKY/WX    TMP DP  RH WIND       PRES   REMARKS
CLE-HOPKINS    PTSUNNY   81  71  71 SW13      29.95S
CLE-LAKEFRONT  PTSUNNY   82  70  66 SW15      29.91F
CUY CO. ARPT   PTSUNNY   82  73  74 SW14      29.94F
LORAIN-ELYRIA  CLOUDY    80  70  71 W17G23    29.93F
ASHTABULA      SUNNY     79  71  76 SW13      29.96S
AKRON-CANTON   CLOUDY    78  70  76 SW13      29.98F
WOOSTER        NOT AVBL
MANSFIELD      CLOUDY    77  70  79 SW12      29.97F
YOUNGSTOWN     PTSUNNY   79  70  74 SW10G20   29.98F
$$

OHZ042-051>053-060>062-070>072-077>081-071600-
  SOUTHWEST OHIO

CITY           SKY/WX    TMP DP  RH WIND       PRES   REMARKS
CINC-COVINGTON LGT RAIN  77  72  84 SW8       30.00S
CINC-LUNKEN    CLOUDY    78  72  81 S9        29.99S
HAMILTON       CLOUDY    81  73  76 SW9G16    29.99S
DAYTON         NOT AVBL
WRIGHT-PAT AFB PTSUNNY   79  72  78 SW12      29.96F
DAYTON GENERAL CLOUDY    77  71  82 SW10      29.98S
WILMINGTON     MOSUNNY   78  70  76 S15       29.99F
$$

OHZ036-037-039>041-045>050-054>059-063>069-073>076-082>088-071600-
  CENTRAL AND SOUTHEAST OHIO

CITY           SKY/WX    TMP DP  RH WIND       PRES   REMARKS
COLUMBUS       CLOUDY    78  71  79 S13       29.98S
OSU AIRPORT    CLOUDY    79  71  76 SW14G21   29.98S
BOLTON FIELD   CLOUDY    79  72  78 SW14      29.99F
RICKENBACK AFB NOT AVBL
NEWARK         PTSUNNY   81  71  71 SW12G18   29.99F
MARION         CLOUDY    79  71  76 SW14      29.96F HAZE
LANCASTER      PTSUNNY   80  71  74 S9        30.00F
ZANESVILLE     CLOUDY    78  70  76 S13       30.01F HAZE
NEW PHILLY     CLOUDY    76  71  85 S6        30.01S
$$



USA.gov is the U.S. government's official web portal to all federal, state and local government web resources and services.